Temp
89 89 90 90 90 91 90 90 92 91 90 92 92 91 91 91 91 91 92 91 90 91 90 89 89 89 91 90 88 89 89 89 91 91 90 91 92 93 94 92 91 92
88 89 89 91 90 90 89 91 90 91 89 89 91 91 91 91 92 92 91 91 91 91 90 90 90 89 89 91 89 89 89 89 89 94 90 89 91 93 93 92 92 92
89 89 90 90 92 91 94 92 90 90 92 93 92 91 93 93 93 91 91 91 91 93 90 90 90 89 90 89 88 89 90 88 88 92 90 89 92 91 92 95 95 93
89 89 91 92 93 93 93 92 91 90 92 92 92 94 93 96 93 92 91 90 90 90 92 91 91 92 90 90 88 89 89 88 90 89 89 90 90 92 92 93 94 94
90 90 91 92 93 92 93 92 93 93 93 92 94 92 91 90 91 93 92 91 89 91 91 90 90 91 89 89 89 89 90 90 90 89 88 88 89 90 92 92 91 91
90 89 89 90 91 91 93 93 92 94 93 94 92 94 93 92 92 93 93 93 94 93 94 93 92 93 93 90 89 90 91 91 91 88 88 88 90 92 94 92 90 89
92 91 91 92 92 93 92 92 92 92 94 95 94 93 94 93 92 92 92 93 94 92 94 92 90 91 92 91 89 88 89 89 89 88 88 90 89 89 92 91 89 89
93 94 92 92 93 93 93 93 94 92 93 93 94 93 94 94 93 94 94 93 94 93 92 93 90 89 93 93 90 89 90 94 92 88 88 88 89 88 89 91 90 88
93 94 93 93 93 94 95 96 96 95 94 93 94 95 94 94 95 95 92 92 92 92 90 92 90 91 92 92 91 89 89 92 94 91 89 90 89 89 90 91 90 89
92 92 95 94 94 94 94 96 97 97 95 95 95 97 96 94 95 94 93 90 91 90 90 91 90 92 92 93 91 91 90 89 90 90 91 91 91 91 92 91 91 89
93 94 93 93 94 96 96 96 97 98 96 95 96 96 97 96 93 94 92 91 93 92 91 90 91 91 91 93 93 93 92 92 91 90 90 90 91 90 90 90 90 91
90 92 92 93 94 95 96 96 96 97 97 96 96 95 95 96 95 95 94 91 91 92 92 91 91 91 90 91 94 94 93 93 92 92 92 91 92 92 92 92 92 91
89 89 90 93 92 93 95 95 96 97 96 96 96 95 95 96 97 94 94 94 92 93 93 92 91 92 90 90 91 92 92 92 93 93 92 92 93 93 95 95 94 94
89 90 91 90 90 90 91 94 95 95 94 94 95 94 95 95 96 96 96 95 94 94 93 93 92 92 91 90 91 92 93 92 92 92 93 94 94 94 95 96 95 96
84 86 87 88 88 88 87 89 91 92 92 92 92 93 96 96 96 97 96 95 95 94 93 95 96 95 95 92 90 90 92 93 93 93 93 92 93 95 95 94 95 97
78 80 83 85 85 85 85 86 89 90 93 92 91 91 91 91 92 94 96 96 95 94 94 96 96 97 91 84 86 91 92 95 94 92 92 92 91 91 94 95 96 97
76 76 77 78 80 82 83 83 84 87 88 88 89 89 88 88 90 92 94 95 95 95 95 96 97 98 79 74 75 77 88 91 91 90 91 91 91 90 90 92 95 96
77 77 78 78 78 78 80 81 81 83 84 85 87 89 87 89 89 89 90 93 95 96 96 97 97 83 71 71 72 71 77 89 93 93 94 93 93 92 92 93 93 95
79 79 79 79 80 80 79 79 78 80 82 84 85 88 89 86 86 88 88 89 91 91 93 95 98 73 71 69 70 68 68 79 93 93 93 94 93 92 92 91 92 92
80 80 80 80 80 79 78 78 77 78 80 82 85 85 84 86 88 87 88 86 87 88 88 92 95 76 69 67 68 65 66 72 91 93 93 93 92 93 94 93 92 91
76 78 78 79 79 78 77 76 76 77 78 81 83 83 83 83 86 87 87 88 88 89 89 90 96 70 67 66 65 64 65 71 88 92 93 92 92 92 91 92 92 92
76 76 76 78 78 77 75 75 74 75 75 76 78 81 83 84 84 87 88 88 89 89 90 89 86 63 65 64 64 64 64 82 87 87 89 91 91 92 92 91 91 91
73 73 73 74 74 72 72 73 73 73 73 74 75 76 78 80 83 86 86 88 89 88 89 89 84 66 60 61 61 61 70 86 87 88 89 89 90 91 91 91 91 91
75 75 73 73 72 72 73 73 72 71 72 74 75 75 74 76 79 80 83 85 86 87 88 87 81 70 60 59 60 60 74 86 87 87 87 87 88 89 90 89 90 87
78 77 76 75 73 71 71 70 71 70 71 72 72 72 73 74 75 76 78 79 82 84 79 79 82 73 58 59 59 61 73 85 86 87 86 87 89 88 90 90 88 88
77 77 76 76 75 73 72 70 71 71 71 71 71 71 71 71 72 73 76 77 80 80 81 80 76 75 65 55 57 60 62 77 85 84 84 85 87 87 87 88 88 87
MSLP
1019.48 1019.56 1019.84 1019.96 1020.00 1020.00 1020.12 1020.32 1020.24 1020.44 1020.60 1020.44 1020.60 1020.64 1020.80 1020.72 1020.60 1020.76 1020.84 1020.96 1021.12 1021.24 1021.32 1021.44 1021.48 1021.56 1021.44 1021.56 1021.64 1021.72 1021.80 1021.92 1021.64 1021.60 1021.76 1021.76 1021.72 1021.68 1021.76 1021.80 1021.84 1021.80
1019.44 1019.52 1019.56 1019.64 1019.84 1019.88 1020.04 1020.04 1020.20 1020.28 1020.44 1020.56 1020.36 1020.36 1020.40 1020.44 1020.56 1020.64 1020.84 1021.00 1021.04 1021.16 1021.16 1021.24 1021.36 1021.48 1021.56 1021.48 1021.68 1021.80 1021.96 1021.92 1022.04 1021.28 1021.80 1021.92 1021.80 1021.60 1021.68 1021.64 1021.68 1021.52
1019.28 1019.44 1019.60 1019.80 1019.72 1019.88 1019.80 1019.84 1020.04 1020.20 1020.20 1020.16 1020.12 1020.24 1020.24 1020.20 1020.40 1020.56 1020.64 1020.84 1021.00 1020.92 1021.12 1021.20 1021.24 1021.36 1021.44 1021.60 1021.72 1021.84 1021.88 1022.08 1022.08 1021.40 1021.68 1021.88 1021.64 1021.72 1021.52 1021.24 1021.20 1021.40
1019.12 1019.20 1019.28 1019.36 1019.24 1019.44 1019.56 1019.76 1019.96 1020.16 1019.96 1020.12 1020.20 1019.92 1020.00 1019.84 1020.12 1020.44 1020.60 1020.76 1020.92 1020.96 1020.88 1021.00 1021.08 1021.08 1021.32 1021.44 1021.68 1021.76 1021.76 1021.92 1021.64 1021.60 1021.84 1021.72 1021.68 1021.60 1021.56 1021.36 1021.28 1021.24
1018.84 1019.04 1019.04 1019.08 1019.04 1019.12 1019.28 1019.64 1019.80 1019.84 1020.00 1019.92 1019.84 1019.92 1020.08 1020.20 1020.24 1020.24 1020.44 1020.64 1020.80 1020.88 1020.88 1021.04 1021.08 1021.12 1021.28 1021.40 1021.52 1021.76 1021.64 1021.76 1021.56 1021.76 1021.96 1022.00 1021.72 1021.68 1021.52 1021.44 1021.68 1021.76
1018.48 1018.68 1018.84 1019.00 1019.04 1019.16 1019.32 1019.48 1019.64 1019.60 1019.72 1019.80 1019.88 1019.64 1019.84 1020.04 1020.16 1020.12 1020.16 1020.40 1020.44 1020.52 1020.52 1020.64 1020.88 1020.88 1021.00 1021.24 1021.40 1021.44 1021.40 1021.52 1021.24 1021.72 1021.92 1022.00 1021.72 1021.32 1021.32 1021.44 1021.76 1021.92
1018.28 1018.52 1018.72 1018.76 1018.92 1018.92 1019.20 1019.28 1019.36 1019.44 1019.40 1019.28 1019.32 1019.68 1019.52 1019.80 1020.04 1020.04 1020.00 1020.08 1020.12 1020.28 1020.36 1020.48 1020.80 1020.80 1020.76 1021.00 1021.32 1021.52 1021.44 1021.44 1021.40 1021.60 1021.88 1021.76 1021.68 1021.72 1021.44 1021.52 1021.76 1021.92
1017.96 1018.04 1018.32 1018.48 1018.72 1018.76 1019.00 1019.00 1019.08 1019.28 1019.28 1019.28 1019.44 1019.48 1019.40 1019.52 1019.72 1019.64 1019.76 1019.88 1019.96 1020.12 1020.20 1020.24 1020.56 1020.80 1020.64 1020.72 1021.12 1021.36 1021.36 1021.08 1021.24 1021.56 1021.76 1021.76 1021.64 1021.80 1021.68 1021.48 1021.56 1021.84
1017.72 1017.84 1018.04 1018.32 1018.52 1018.56 1018.64 1018.56 1018.64 1018.84 1018.92 1019.28 1019.28 1019.08 1019.16 1019.28 1019.36 1019.44 1019.64 1019.80 1019.88 1020.00 1020.24 1020.24 1020.40 1020.52 1020.40 1020.52 1020.80 1021.08 1021.24 1021.04 1020.80 1021.16 1021.48 1021.56 1021.60 1021.64 1021.48 1021.28 1021.52 1021.64
1017.80 1017.76 1017.84 1018.04 1018.28 1018.24 1018.36 1018.28 1018.12 1018.24 1018.48 1018.88 1018.96 1018.76 1018.92 1019.08 1019.08 1019.24 1019.52 1019.84 1019.96 1020.12 1020.28 1020.24 1020.28 1020.28 1020.24 1020.28 1020.60 1020.72 1020.88 1021.04 1021.00 1021.04 1021.04 1021.12 1021.20 1021.20 1021.08 1021.16 1021.32 1021.48
1017.68 1017.68 1017.92 1018.04 1018.04 1017.84 1017.96 1018.00 1017.96 1017.92 1018.04 1018.44 1018.56 1018.64 1018.56 1018.80 1019.12 1019.12 1019.48 1019.80 1019.92 1019.96 1020.08 1020.16 1020.16 1020.16 1020.24 1020.12 1020.04 1020.08 1020.36 1020.48 1020.60 1020.72 1020.80 1020.88 1020.88 1020.92 1020.96 1021.04 1021.12 1021.16
1017.72 1017.72 1017.84 1017.88 1017.88 1017.80 1017.72 1017.68 1017.72 1017.80 1017.88 1018.04 1018.24 1018.48 1018.48 1018.48 1018.84 1018.96 1019.20 1019.60 1019.64 1019.60 1019.64 1019.84 1019.88 1019.96 1020.08 1020.04 1019.88 1019.80 1020.00 1020.12 1020.20 1020.36 1020.44 1020.52 1020.56 1020.56 1020.56 1020.60 1020.72 1020.80
1017.72 1017.72 1017.60 1017.60 1017.68 1017.72 1017.56 1017.52 1017.60 1017.60 1017.76 1017.96 1017.96 1018.24 1018.40 1018.56 1018.44 1018.72 1018.80 1019.04 1019.32 1019.32 1019.40 1019.48 1019.64 1019.72 1019.88 1019.96 1019.92 1019.84 1019.92 1020.04 1020.00 1020.04 1020.12 1020.20 1020.12 1020.16 1020.04 1020.04 1020.16 1020.24
1017.28 1017.28 1017.40 1017.52 1017.52 1017.60 1017.64 1017.52 1017.48 1017.56 1017.68 1017.72 1017.76 1018.04 1018.24 1018.32 1018.36 1018.40 1018.48 1018.60 1018.84 1019.00 1019.04 1019.04 1019.32 1019.52 1019.64 1019.80 1019.80 1019.76 1019.80 1019.88 1019.96 1019.96 1019.88 1019.84 1019.80 1019.80 1019.68 1019.68 1019.68 1019.68
1017.44 1017.28 1017.28 1017.40 1017.60 1017.72 1017.84 1017.80 1017.68 1017.68 1017.72 1017.72 1017.84 1017.92 1017.80 1017.88 1018.00 1018.04 1018.20 1018.40 1018.40 1018.64 1018.76 1018.72 1018.84 1019.08 1019.04 1019.28 1019.68 1019.92 1019.64 1019.64 1019.68 1019.76 1019.80 1019.84 1019.80 1019.60 1019.48 1019.48 1019.44 1019.28
1017.80 1017.76 1017.68 1017.60 1017.72 1017.80 1017.84 1017.84 1017.80 1017.64 1017.56 1017.72 1017.84 1017.96 1018.00 1017.92 1017.96 1017.88 1017.96 1018.20 1018.36 1018.48 1018.60 1018.60 1018.68 1018.52 1018.60 1018.96 1019.08 1019.24 1019.36 1019.24 1019.24 1019.40 1019.52 1019.60 1019.76 1019.80 1019.60 1019.36 1019.16 1019.00
1017.88 1018.04 1018.04 1018.16 1018.04 1017.92 1017.80 1017.80 1017.84 1017.76 1017.76 1017.84 1017.92 1018.00 1018.12 1018.08 1018.16 1018.16 1018.04 1017.96 1018.08 1018.24 1018.36 1018.32 1018.24 1018.08 1018.56 1018.92 1019.20 1019.36 1019.40 1019.36 1019.48 1019.48 1019.40 1019.52 1019.56 1019.68 1019.84 1019.56 1019.16 1018.88
1017.72 1017.88 1018.00 1018.00 1018.08 1018.12 1018.04 1017.92 1017.88 1017.92 1017.96 1018.00 1018.00 1018.04 1018.12 1018.04 1018.24 1018.28 1018.16 1018.04 1017.92 1017.88 1018.00 1017.92 1017.84 1017.88 1018.40 1018.80 1019.12 1019.32 1019.44 1019.32 1019.16 1019.16 1019.04 1019.04 1019.04 1019.12 1019.12 1019.08 1019.08 1018.92
1017.24 1017.44 1017.52 1017.60 1017.64 1017.72 1017.84 1017.92 1018.12 1018.20 1018.08 1018.00 1018.00 1017.72 1017.80 1018.16 1018.24 1018.20 1018.24 1018.16 1018.08 1018.16 1018.12 1017.80 1017.60 1018.04 1018.32 1018.72 1019.00 1019.28 1019.44 1019.40 1019.00 1018.88 1018.88 1018.80 1018.68 1018.76 1018.80 1018.92 1018.92 1018.92
1017.00 1017.20 1017.32 1017.40 1017.44 1017.68 1017.92 1018.08 1018.24 1018.20 1017.96 1017.72 1017.60 1017.64 1017.88 1018.00 1017.96 1018.04 1018.04 1018.20 1018.24 1018.24 1018.24 1017.96 1017.64 1017.92 1018.20 1018.64 1018.88 1019.20 1019.36 1019.48 1018.92 1018.72 1018.64 1018.60 1018.64 1018.56 1018.48 1018.48 1018.56 1018.76
1017.40 1017.36 1017.44 1017.40 1017.48 1017.72 1018.04 1018.28 1018.40 1018.40 1018.28 1018.00 1017.80 1017.80 1017.96 1018.04 1017.92 1017.92 1017.84 1017.88 1017.96 1018.00 1018.12 1018.08 1017.60 1017.88 1018.20 1018.52 1018.80 1019.08 1019.32 1019.44 1018.92 1018.52 1018.36 1018.40 1018.36 1018.36 1018.44 1018.40 1018.36 1018.36
1017.60 1017.64 1017.68 1017.56 1017.52 1017.60 1017.88 1018.16 1018.36 1018.52 1018.68 1018.52 1018.24 1018.00 1017.72 1017.60 1017.68 1017.48 1017.64 1017.72 1017.72 1017.76 1017.80 1017.88 1018.04 1018.32 1018.52 1018.80 1019.08 1019.24 1019.40 1019.20 1018.80 1018.80 1018.64 1018.40 1018.24 1018.16 1018.16 1018.08 1018.08 1018.16
1018.00 1018.04 1018.04 1017.96 1018.00 1018.16 1018.28 1018.24 1018.32 1018.48 1018.60 1018.56 1018.68 1018.40 1018.32 1018.04 1017.72 1017.68 1017.52 1017.56 1017.56 1017.68 1017.76 1017.60 1018.40 1018.72 1018.72 1018.76 1018.96 1019.12 1019.08 1018.72 1018.52 1018.40 1018.36 1018.36 1018.24 1018.00 1017.96 1017.92 1017.92 1017.92
1017.84 1017.92 1018.20 1018.24 1018.32 1018.48 1018.44 1018.48 1018.52 1018.48 1018.44 1018.32 1018.40 1018.48 1018.56 1018.28 1018.00 1017.92 1017.68 1017.64 1017.68 1017.68 1017.68 1017.92 1018.52 1018.88 1018.92 1018.80 1018.88 1019.00 1018.76 1018.44 1018.20 1018.28 1018.28 1018.24 1018.12 1017.92 1017.76 1017.76 1017.76 1017.96
1017.84 1017.80 1018.00 1018.24 1018.56 1018.76 1018.72 1018.80 1018.88 1018.92 1018.72 1018.64 1018.64 1018.68 1018.64 1018.40 1018.20 1018.20 1018.24 1018.16 1017.96 1017.88 1018.12 1018.56 1018.60 1019.04 1019.36 1019.28 1019.20 1019.16 1018.88 1018.32 1018.16 1018.08 1018.28 1018.16 1017.96 1017.92 1017.60 1017.60 1017.68 1017.72
1018.12 1018.04 1018.08 1018.24 1018.44 1018.64 1018.68 1018.84 1018.80 1018.76 1018.72 1018.96 1019.04 1019.00 1018.96 1018.80 1018.64 1018.60 1018.64 1018.52 1018.32 1018.36 1018.28 1018.44 1019.04 1019.56 1019.96 1019.80 1019.64 1019.44 1019.24 1018.68 1018.04 1018.24 1018.40 1018.24 1017.96 1017.92 1018.04 1017.76 1017.68 1017.76
Wind_Speed
8 7 7 7 6 5 5 5 5 5 4 4 4 4 4 4 4 4 4 4 5 5 4 3 3 3 3 3 2 3 2 2 3 1 2 3 3 3 3 3 3 4
9 8 6 7 6 5 5 5 5 5 4 4 4 3 4 4 5 5 5 5 5 5 4 4 4 3 3 3 3 3 3 3 4 3 2 3 3 3 3 3 3 2
10 9 9 9 8 8 8 7 6 6 6 6 5 4 4 5 5 5 5 5 5 5 5 4 4 4 4 3 3 4 4 3 4 3 2 2 3 2 3 4 4 4
11 10 9 10 9 8 8 7 7 6 6 6 6 6 5 4 5 6 6 6 6 5 5 5 4 4 5 4 4 4 3 3 3 2 2 3 3 4 3 3 3 4
11 11 10 9 8 8 8 8 8 8 8 6 6 6 6 5 5 6 6 7 6 7 6 5 5 5 5 5 5 4 3 4 4 3 3 3 4 4 4 3 3 4
10 10 10 9 9 9 8 9 8 8 8 8 7 7 7 7 7 7 7 8 8 8 7 7 7 6 6 6 5 5 4 6 3 4 4 4 5 3 4 3 3 4
11 11 11 10 11 10 9 9 8 8 7 8 7 7 7 8 8 7 7 7 7 7 7 6 6 5 5 5 5 5 4 4 2 4 5 5 4 5 5 4 4 4
11 10 10 10 11 11 11 10 9 8 8 7 8 8 8 8 8 8 8 7 7 7 7 7 7 6 6 6 6 6 6 5 6 6 6 5 5 5 5 4 4 5
10 10 10 11 11 11 12 12 11 10 9 9 9 8 8 8 8 8 7 7 7 6 7 7 7 7 7 6 6 6 5 5 4 5 5 6 6 6 5 5 5 5
10 9 10 11 11 10 12 11 10 10 10 10 9 8 8 8 8 8 7 7 7 7 7 7 7 7 7 7 7 6 6 6 5 5 5 5 5 5 5 5 5 5
10 10 10 10 10 10 11 11 11 10 9 10 10 9 9 8 8 7 7 7 7 8 7 7 7 7 7 7 7 6 7 6 5 5 6 6 5 5 5 5 5 6
10 9 9 10 10 9 10 10 10 10 9 9 9 9 9 8 8 8 8 8 7 7 7 7 7 7 7 7 7 7 7 7 6 6 6 6 6 6 6 6 6 6
10 9 8 9 9 9 8 9 9 10 10 9 9 9 10 9 9 9 8 8 8 7 7 7 7 7 7 7 7 6 6 6 6 6 6 6 6 6 6 6 6 7
9 9 9 8 7 7 8 8 9 9 8 8 8 9 10 10 10 9 9 8 8 8 7 7 7 7 7 7 7 7 7 7 7 7 7 6 6 6 6 6 6 7
5 6 7 7 7 7 7 8 8 8 8 8 8 8 8 9 10 10 9 9 9 8 8 8 8 8 8 8 8 8 7 7 7 7 7 7 7 7 7 7 7 7
4 5 6 7 7 8 8 8 8 9 10 9 9 8 8 7 8 9 10 10 9 9 9 9 8 7 5 4 0 5 6 6 6 6 7 6 6 6 7 8 8 8
5 5 4 5 7 8 8 8 8 8 8 8 9 8 8 8 8 9 10 10 10 10 10 10 9 7 12 11 9 8 7 7 7 7 7 8 8 7 7 7 8 7
8 10 10 10 9 8 6 5 5 8 8 8 8 9 8 9 9 9 9 9 9 10 10 9 9 8 15 12 11 10 8 7 7 8 8 8 8 8 7 7 7 8
11 11 11 12 12 11 9 6 6 8 11 10 10 9 9 9 9 9 9 8 8 8 8 8 9 12 13 12 11 10 10 9 7 8 8 8 8 7 7 7 6 7
8 8 9 9 9 7 7 8 8 9 9 9 8 9 9 9 10 10 8 8 7 8 8 8 10 10 12 12 9 9 8 8 7 8 8 8 8 8 7 7 7 7
1 4 6 7 7 7 7 8 8 7 7 7 7 8 8 8 10 10 9 9 9 9 9 9 9 12 12 12 9 8 6 7 7 8 8 8 8 8 8 9 8 8
3 2 1 1 2 6 9 8 6 6 6 7 7 7 7 8 8 9 8 9 9 9 9 10 2 10 10 8 6 4 5 5 7 7 8 8 8 8 8 7 8 8
6 5 5 4 4 6 4 2 7 7 6 6 7 7 8 8 7 7 7 7 8 8 8 8 5 6 8 8 8 7 7 6 7 7 8 8 9 8 8 8 7 8
6 6 6 6 6 7 6 7 7 4 3 2 4 6 8 7 4 3 4 4 5 6 5 6 5 4 3 7 7 6 6 6 6 7 8 8 8 8 7 7 6 6
6 5 5 5 5 6 5 6 7 5 5 3 4 5 5 4 3 2 2 1 1 4 4 4 4 5 7 5 2 3 5 6 6 7 7 7 7 7 7 6 5 5
7 7 7 6 5 5 4 5 4 3 3 5 5 4 4 5 5 4 1 2 3 2 2 4 8 8 9 8 7 5 7 6 5 6 6 7 7 6 5 6 4 5
Wind_Direction
201 202 203 205 206 209 207 205 213 205 214 229 211 203 209 204 209 208 201 196 192 204 191 196 198 212 205 198 224 240 273 278 291 187 235 252 239 243 235 215 243 250
204 207 208 210 207 205 208 216 213 230 210 228 241 210 209 207 197 205 204 204 196 203 198 194 199 209 228 217 199 230 218 230 244 222 215 220 250 250 241 232 250 253
207 206 208 212 209 203 213 207 218 219 223 218 215 224 213 197 203 194 206 207 206 208 192 206 200 202 213 212 213 229 218 217 249 244 214 258 274 270 278 265 224 210
207 212 211 215 219 210 212 213 207 219 228 214 219 213 219 202 193 189 196 204 204 211 205 203 213 201 200 201 202 231 213 233 244 283 253 256 257 268 263 256 268 258
205 207 214 218 221 219 216 213 218 209 219 218 212 209 206 218 204 200 192 192 205 201 201 205 199 209 195 198 205 222 214 237 202 219 242 243 244 241 251 252 265 268
204 208 210 218 221 220 216 214 217 223 213 208 214 206 201 200 210 213 198 196 192 206 198 198 196 199 200 191 207 222 206 235 161 194 231 238 257 245 248 230 240 254
205 204 211 212 218 216 219 217 216 223 217 223 198 212 204 198 204 210 208 205 204 197 205 191 193 195 195 189 203 202 225 239 245 207 229 240 233 249 252 245 246 253
211 206 209 213 217 216 217 217 215 212 218 224 217 205 213 208 203 204 202 204 208 200 203 190 186 195 202 193 197 205 221 213 209 214 226 237 249 242 241 255 243 243
215 213 208 214 217 218 218 217 210 211 211 218 224 210 204 219 205 209 197 200 210 198 195 201 189 198 207 203 201 207 222 243 232 208 220 233 226 229 237 238 237 240
215 222 218 213 216 216 220 220 221 210 204 215 221 222 208 204 216 208 195 198 206 198 200 209 197 206 207 200 203 212 219 218 228 233 236 235 240 242 235 229 239 244
220 217 219 221 224 221 215 216 222 220 207 210 216 221 212 199 201 210 199 200 210 202 203 207 208 208 210 216 210 207 211 218 218 218 225 232 240 245 252 253 256 258
222 220 220 221 224 226 226 218 217 219 217 204 215 219 216 212 196 201 199 200 214 211 206 206 211 216 214 223 220 211 209 218 215 219 224 231 235 236 232 236 244 244
209 219 223 222 218 225 229 224 220 218 218 218 209 216 216 215 207 202 200 201 202 212 213 205 209 216 219 221 231 233 229 229 234 226 226 228 233 235 240 237 238 241
210 210 216 218 226 228 231 230 228 222 220 220 222 215 216 217 221 208 202 206 207 210 215 210 208 216 214 223 230 229 225 225 229 238 235 230 231 234 245 247 246 245
225 221 214 213 216 221 226 235 232 227 224 224 219 226 221 218 222 224 215 212 209 213 216 218 216 213 216 214 216 231 243 238 234 235 237 237 241 244 236 238 240 246
199 223 230 228 220 213 216 220 230 229 222 215 215 217 228 233 233 231 228 222 218 212 218 224 227 232 187 125 293 242 235 243 241 240 250 259 256 254 252 245 244 251
184 197 193 222 233 237 225 215 218 225 225 219 215 213 220 221 226 232 233 232 230 227 222 225 227 222 144 164 183 222 249 246 248 247 241 243 244 240 250 258 261 259
200 213 217 218 218 219 223 219 223 223 220 216 215 210 211 219 217 225 236 240 237 235 232 232 235 144 151 167 188 199 216 242 245 244 242 238 237 245 247 249 252 253
209 212 213 218 215 214 204 183 194 216 218 217 216 217 208 213 218 218 221 227 241 246 247 241 246 141 164 167 186 199 202 231 244 247 254 251 250 249 253 259 261 260
216 216 218 216 218 206 188 195 205 215 222 220 217 213 212 215 218 214 215 218 225 236 239 245 254 156 163 167 183 197 199 222 245 245 248 254 261 261 259 253 248 254
144 228 234 228 217 201 194 201 212 224 229 233 227 220 217 219 226 222 219 220 221 226 231 236 240 149 160 168 184 196 186 220 251 257 252 249 250 250 251 256 261 258
83 111 56 13 262 221 209 196 209 233 241 249 241 233 229 228 226 233 225 222 225 230 233 238 48 85 93 96 109 143 169 222 238 241 250 253 249 251 252 257 256 258
85 79 72 67 63 54 53 186 195 200 211 212 234 227 219 226 220 225 230 232 228 227 232 248 110 65 99 117 123 152 193 225 237 242 244 248 253 254 257 255 258 259
85 89 84 82 80 77 68 53 47 42 57 331 239 211 211 208 215 226 223 230 247 234 231 227 110 50 92 123 142 169 238 235 231 237 240 248 251 250 253 254 255 261
80 85 90 87 81 77 72 68 61 39 33 36 44 32 31 40 43 83 114 11 296 240 37 280 151 84 41 46 93 184 251 236 241 240 243 244 249 250 241 245 240 231
66 71 72 71 73 77 76 74 77 92 106 77 49 36 27 26 14 9 76 130 145 189 96 50 59 42 26 23 25 2 346 301 254 244 251 249 250 255 260 248 244 258